St. George, UT

3:52 PM MDT on April 23, 2018 (GMT -0600)
Saint George Municipal

Weather History for KSGU - June, 2013

Change the Weather History Date:

Monday, June 10, 2013

  Actual Average Record
Temperature  
Mean Temperature 88 °F -  
Max Temperature 102 °F 93 °F 106 °F (1985)
Min Temperature 73 °F 60 °F 45 °F (1954)
Cooling Degree Days 22    
Growing Degree Days 38 (Base 50)    
Moisture  
Dew Point 28 °F    
Average Humidity 11    
Maximum Humidity 14    
Minimum Humidity 10    
Precipitation  
Precipitation 0.00 in - - ()
Sea Level Pressure  
Sea Level Pressure 29.87 in    
Wind  
Wind Speed 11 mph (SSW)    
Max Wind Speed 34 mph    
Max Gust Speed 41 mph    
Visibility 10 miles    
Events      
Averages and records for this station are not official NWS values.
T = Trace of Precipitation, MM = Missing Value Source: NWS Daily Summary

Daily Weather History Graph

Daily Weather History Graph

Search for Another Location

Airport or City:

Astronomy

Jun. 10, 2013 Rise Set
Actual Time 6:13 AM MDT 8:53 PM MDT
Civil Twilight 5:43 AM MDT 9:24 PM MDT
Nautical Twilight 5:04 AM MDT 10:02 PM MDT
Astronomical Twilight 4:22 AM MDT 10:45 PM MDT
Moon 8:04 AM MDT (6/10) 10:25 PM MDT (6/10)
Length of Visible Light 15h 41m
Length of Day
14h 39m
Waxing Crescent, 4% of the Moon is Illuminated
Jun 10
Waxing Crescent
Jun 16
First Quarter
Jun 23
Full
Jun 29
Last Quarter
Jul 8
New

Hourly Weather History & Observations

Time (MDT) Temp. Dew Point Humidity Pressure Visibility Wind Dir Wind Speed Gust Speed Precip Events Conditions
12:15 AM 87.8 °F 24.8 °F 10% 29.90 in 10.0 mi North 4.6 mph - N/A   Clear
12:35 AM 89.6 °F 26.6 °F 10% 29.90 in 10.0 mi South 5.8 mph - N/A   Clear
12:55 AM 89.6 °F 26.6 °F 10% 29.90 in 10.0 mi Calm Calm - N/A   Clear
1:15 AM 86.0 °F 24.8 °F 11% 29.91 in 10.0 mi SSW 3.5 mph - N/A   Clear
1:35 AM 87.8 °F 24.8 °F 10% 29.90 in 10.0 mi SSW 3.5 mph - N/A   Clear
1:55 AM 84.2 °F 23.0 °F 11% 29.90 in 10.0 mi South 3.5 mph - N/A   Clear
2:15 AM 86.0 °F 24.8 °F 11% 29.91 in 10.0 mi Calm Calm - N/A   Clear
2:35 AM 86.0 °F 23.0 °F 10% 29.91 in 10.0 mi SSE 4.6 mph - N/A   Clear
2:55 AM 82.4 °F 23.0 °F 11% 29.91 in 10.0 mi SSE 8.1 mph - N/A   Clear
3:15 AM 80.6 °F 21.2 °F 11% 29.91 in 10.0 mi SSE 5.8 mph - N/A   Clear
3:35 AM 78.8 °F 21.2 °F 12% 29.91 in 10.0 mi SE 9.2 mph - N/A   Clear
3:55 AM 78.8 °F 21.2 °F 12% 29.91 in 10.0 mi SE 9.2 mph - N/A   Clear
4:15 AM 77.0 °F 21.2 °F 12% 29.91 in 10.0 mi ESE 8.1 mph - N/A   Clear
4:35 AM 75.2 °F 21.2 °F 13% 29.91 in 10.0 mi SE 6.9 mph - N/A   Clear
4:55 AM 75.2 °F 21.2 °F 13% 29.91 in 10.0 mi SE 11.5 mph - N/A   Clear
5:35 AM 75.2 °F 21.2 °F 13% 29.91 in 10.0 mi ESE 11.5 mph - N/A   Clear
5:55 AM 75.2 °F 21.2 °F 13% 29.91 in 10.0 mi ESE 12.7 mph - N/A   Clear
6:15 AM 73.4 °F 21.2 °F 14% 29.91 in 10.0 mi SE 9.2 mph - N/A   Clear
6:35 AM 73.4 °F 21.2 °F 14% 29.92 in 10.0 mi ESE 10.4 mph - N/A   Clear
6:55 AM 73.4 °F 21.2 °F 14% 29.93 in 10.0 mi ESE 6.9 mph - N/A   Clear
7:15 AM 73.4 °F 21.2 °F 14% 29.93 in 10.0 mi ESE 8.1 mph - N/A   Clear
7:35 AM 75.2 °F 21.2 °F 13% 29.93 in 10.0 mi East 10.4 mph - N/A   Clear
7:55 AM 78.8 °F 21.2 °F 12% 29.94 in 10.0 mi East 11.5 mph - N/A   Clear
8:15 AM 80.6 °F 23.0 °F 12% 29.94 in 10.0 mi East 15.0 mph - N/A   Clear
8:35 AM 84.2 °F 24.8 °F 11% 29.94 in 10.0 mi East 11.5 mph - N/A   Clear
8:55 AM 86.0 °F 24.8 °F 11% 29.94 in 10.0 mi East 9.2 mph - N/A   Clear
9:15 AM 87.8 °F 24.8 °F 10% 29.94 in 10.0 mi ESE 4.6 mph - N/A   Clear
9:55 AM 87.8 °F 26.6 °F 11% 29.94 in 10.0 mi Calm Calm - N/A   Clear
10:15 AM 87.8 °F 26.6 °F 11% 29.94 in 10.0 mi Calm Calm - N/A   Clear
10:35 AM 89.6 °F 26.6 °F 10% 29.93 in 10.0 mi Calm Calm - N/A   Clear
10:55 AM 91.4 °F 26.6 °F 10% 29.93 in 10.0 mi Calm Calm - N/A   Clear
11:15 AM 91.4 °F 28.4 °F 10% 29.93 in 10.0 mi West 3.5 mph - N/A   Clear
11:35 AM 93.2 °F 30.2 °F 11% 29.92 in 10.0 mi West 3.5 mph - N/A   Clear
11:55 AM 96.8 °F 30.2 °F 10% 29.91 in 10.0 mi SW 20.7 mph 29.9 mph N/A   Clear
12:15 PM 96.8 °F 30.2 °F 10% 29.90 in 10.0 mi SW 26.5 mph 36.8 mph N/A   Clear
12:35 PM 96.8 °F 32.0 °F 10% 29.90 in 10.0 mi SSW 24.2 mph 29.9 mph N/A   Clear
12:55 PM 98.6 °F 32.0 °F 10% 29.89 in 10.0 mi South 26.5 mph 35.7 mph N/A   Clear
1:15 PM 98.6 °F 33.8 °F 10% 29.88 in 10.0 mi WSW 21.9 mph 28.8 mph N/A   Clear
1:35 PM 98.6 °F 33.8 °F 10% 29.88 in 10.0 mi WSW 16.1 mph 31.1 mph N/A   Clear
1:55 PM 98.6 °F 33.8 °F 10% 29.87 in 10.0 mi South 23.0 mph 28.8 mph N/A   Clear
2:15 PM 100.4 °F 33.8 °F 10% 29.86 in 10.0 mi SW 24.2 mph 27.6 mph N/A   Clear
2:35 PM 100.4 °F 35.6 °F 11% 29.85 in 10.0 mi SW 23.0 mph 38.0 mph N/A   Clear
2:55 PM 100.4 °F 35.6 °F 11% 29.84 in 10.0 mi SSW 19.6 mph 35.7 mph N/A   Clear
3:15 PM 102.2 °F 35.6 °F 10% 29.82 in 10.0 mi SW 28.8 mph 36.8 mph N/A   Clear
3:35 PM 100.4 °F 35.6 °F 11% 29.82 in 10.0 mi SSW 28.8 mph 40.3 mph N/A   Clear
3:55 PM 102.2 °F 35.6 °F 10% 29.81 in 10.0 mi SSW 33.4 mph 38.0 mph N/A   Clear
4:15 PM 100.4 °F 35.6 °F 11% 29.80 in 10.0 mi SSW 28.8 mph 33.4 mph N/A   Clear
4:35 PM 100.4 °F 35.6 °F 11% 29.80 in 10.0 mi SW 25.3 mph 34.5 mph N/A   Clear
4:55 PM 102.2 °F 35.6 °F 10% 29.79 in 10.0 mi SW 29.9 mph 36.8 mph N/A   Clear
5:15 PM 100.4 °F 35.6 °F 11% 29.78 in 10.0 mi SW 34.5 mph 41.4 mph N/A   Clear
5:35 PM 100.4 °F 35.6 °F 11% 29.79 in 10.0 mi SW 25.3 mph 34.5 mph N/A   Clear
5:55 PM 100.4 °F 33.8 °F 10% 29.78 in 10.0 mi SW 28.8 mph 41.4 mph N/A   Clear
6:35 PM 98.6 °F 33.8 °F 10% 29.77 in 10.0 mi SW 29.9 mph 40.3 mph N/A   Clear
6:55 PM 98.6 °F 33.8 °F 10% 29.77 in 10.0 mi SSW 27.6 mph 35.7 mph N/A   Clear
7:15 PM 98.6 °F 33.8 °F 10% 29.77 in 10.0 mi SW 25.3 mph 40.3 mph N/A   Clear
7:35 PM 96.8 °F 32.0 °F 10% 29.77 in 10.0 mi SSW 20.7 mph 32.2 mph N/A   Clear
7:55 PM 96.8 °F 30.2 °F 10% 29.77 in 10.0 mi SSW 23.0 mph 28.8 mph N/A   Clear
8:15 PM 95.0 °F 30.2 °F 10% 29.78 in 10.0 mi SW 18.4 mph 32.2 mph N/A   Clear
8:35 PM 93.2 °F 30.2 °F 11% 29.78 in 10.0 mi SW 27.6 mph 31.1 mph N/A   Clear
8:55 PM 91.4 °F 28.4 °F 10% 29.79 in 10.0 mi SW 18.4 mph - N/A   Clear
9:15 PM 91.4 °F 28.4 °F 10% 29.79 in 10.0 mi SW 20.7 mph 25.3 mph N/A   Clear
9:35 PM 91.4 °F 26.6 °F 10% 29.80 in 10.0 mi SW 18.4 mph 23.0 mph N/A   Clear
9:55 PM 89.6 °F 26.6 °F 10% 29.81 in 10.0 mi SW 18.4 mph - N/A   Clear
10:15 PM 89.6 °F 26.6 °F 10% 29.82 in 10.0 mi SSW 17.3 mph 26.5 mph N/A   Clear
10:35 PM 87.8 °F 24.8 °F 10% 29.83 in 10.0 mi WSW 16.1 mph 27.6 mph N/A   Clear
10:55 PM 86.0 °F 24.8 °F 11% 29.83 in 10.0 mi WSW 15.0 mph - N/A   Clear
11:15 PM 84.2 °F 23.0 °F 11% 29.84 in 10.0 mi WSW 13.8 mph - N/A   Clear
11:35 PM 84.2 °F 23.0 °F 11% 29.85 in 10.0 mi WSW 10.4 mph - N/A   Clear
11:55 PM 82.4 °F 21.2 °F 10% 29.86 in 10.0 mi SW 5.8 mph - N/A   Clear